Weather History for KCOD - December, 2012

Change the Weather History Date:

Sunday, December 16, 2012

  Actual Average Record
Temperature  
Mean Temperature 32 °F -  
Max Temperature 37 °F 37 °F 65 °F (1980)
Min Temperature 26 °F 15 °F -24 °F (1924)
Degree Days  
Heating Degree Days 34    
Moisture  
Dew Point 10 °F    
Average Humidity 44    
Maximum Humidity 64    
Minimum Humidity 30    
Precipitation  
Precipitation 0.00 in - - ()
Sea Level Pressure  
Sea Level Pressure 29.62 in    
Wind  
Wind Speed 11 mph (West)    
Max Wind Speed 20 mph    
Max Gust Speed 37 mph    
Visibility 10 miles    
Events      
Averages and records for this station are not official NWS values.
T = Trace of Precipitation, MM = Missing Value Source: NWS Daily Summary

Daily Weather History Graph

Daily Weather History Graph

Search for Another Location

Airport or City:

Trip Planner

Search our weather history database for the weather conditions in past years. The results will help you decide how hot, cold, wet, or windy it might be!

Date:

Astronomy

Dec. 16, 2012 Rise Set
Actual Time 7:46 AM MST 4:37 PM MST
Civil Twilight 7:13 AM MST 5:10 PM MST
Nautical Twilight 6:36 AM MST 5:47 PM MST
Astronomical Twilight 6:01 AM MST 6:23 PM MST
Moon 10:15 AM MST (12/16) 9:03 PM MST (12/16)
Length of Visible Light 9h 57m
Length of Day
8h 50m
Waxing Crescent, 16% of the Moon is Illuminated
Dec 16
Waxing Crescent
Dec 19
First Quarter
Dec 28
Full
Jan 4
Last Quarter
Jan 11
New

Hourly Weather History & Observations

Time (MST) Temp. Windchill Dew Point Humidity Pressure Visibility Wind Dir Wind Speed Gust Speed Precip Events Conditions
12:15 AM 30.2 °F 24.3 °F 10.4 °F 44% 29.58 in 10.0 mi WNW 5.8 mph 16.1 mph N/A   Partly Cloudy
12:35 AM 28.4 °F 22.2 °F 10.4 °F 47% 29.58 in 10.0 mi West 5.8 mph - N/A   Scattered Clouds
12:55 AM 28.4 °F 22.2 °F 10.4 °F 47% 29.58 in 10.0 mi West 5.8 mph 23.0 mph N/A   Partly Cloudy
1:15 AM 28.4 °F 18.5 °F 10.4 °F 47% 29.58 in 10.0 mi West 11.5 mph 18.4 mph N/A   Clear
1:55 AM 28.4 °F 15.4 °F 8.6 °F 43% 29.57 in 10.0 mi West 19.6 mph 24.2 mph N/A   Clear
2:35 AM 28.4 °F 19.7 °F 6.8 °F 40% 29.57 in 10.0 mi West 9.2 mph 21.9 mph N/A   Clear
2:55 AM 28.4 °F 17.5 °F 8.6 °F 43% 29.57 in 10.0 mi West 13.8 mph 33.4 mph N/A   Clear
3:15 AM 28.4 °F 18.5 °F 8.6 °F 43% 29.57 in 10.0 mi West 11.5 mph 25.3 mph N/A   Clear
3:35 AM 28.4 °F 19.7 °F 8.6 °F 43% 29.57 in 10.0 mi West 9.2 mph 27.6 mph N/A   Clear
4:35 AM 28.4 °F 17.0 °F 8.6 °F 43% 29.55 in 10.0 mi West 15.0 mph 36.8 mph N/A   Clear
4:55 AM 28.4 °F 15.8 °F 8.6 °F 43% 29.55 in 10.0 mi WSW 18.4 mph 32.2 mph N/A   Clear
5:35 AM 28.4 °F 16.6 °F 10.4 °F 47% 29.55 in 10.0 mi West 16.1 mph 25.3 mph N/A   Clear
6:15 AM 30.2 °F 21.3 °F 8.6 °F 40% 29.57 in 10.0 mi West 10.4 mph 20.7 mph N/A   Clear
6:55 AM 30.2 °F 23.4 °F 8.6 °F 40% 29.57 in 10.0 mi WSW 6.9 mph - N/A   Clear
7:35 AM 30.2 °F 23.4 °F 8.6 °F 40% 29.58 in 10.0 mi West 6.9 mph 18.4 mph N/A   Clear
7:55 AM 30.2 °F 20.2 °F 8.6 °F 40% 29.58 in 10.0 mi West 12.7 mph 20.7 mph N/A   Scattered Clouds
8:35 AM 32.0 °F 20.8 °F 6.8 °F 35% 29.59 in 10.0 mi West 17.3 mph 25.3 mph N/A   Scattered Clouds
8:55 AM 32.0 °F 21.2 °F 6.8 °F 35% 29.60 in 10.0 mi West 16.1 mph 21.9 mph N/A   Mostly Cloudy
9:15 AM 32.0 °F 23.6 °F 6.8 °F 35% 29.60 in 10.0 mi West 10.4 mph 25.3 mph N/A   Mostly Cloudy
9:35 AM 32.0 °F 22.5 °F 8.6 °F 38% 29.61 in 10.0 mi West 12.7 mph 20.7 mph N/A   Partly Cloudy
9:55 AM 32.0 °F 24.2 °F 8.6 °F 38% 29.62 in 10.0 mi West 9.2 mph 16.1 mph N/A   Clear
10:15 AM 32.0 °F 24.8 °F 8.6 °F 38% 29.61 in 10.0 mi WSW 8.1 mph 21.9 mph N/A   Clear
10:35 AM 33.8 °F 22.8 °F 8.6 °F 35% 29.62 in 10.0 mi WSW 18.4 mph 27.6 mph N/A   Clear
10:55 AM 33.8 °F 23.9 °F 10.4 °F 38% 29.62 in 10.0 mi WSW 15.0 mph 26.5 mph N/A   Clear
11:15 AM 35.6 °F 27.1 °F 10.4 °F 35% 29.62 in 10.0 mi WSW 12.7 mph 20.7 mph N/A   Clear
11:35 AM 35.6 °F 26.6 °F 10.4 °F 35% 29.62 in 10.0 mi West 13.8 mph 21.9 mph N/A   Partly Cloudy
11:55 AM 35.6 °F 26.6 °F 10.4 °F 35% 29.61 in 10.0 mi WSW 13.8 mph 24.2 mph N/A   Clear
12:15 PM 35.6 °F 26.2 °F 10.4 °F 35% 29.62 in 10.0 mi West 15.0 mph 31.1 mph N/A   Partly Cloudy
12:35 PM 37.4 °F 29.3 °F 8.6 °F 30% 29.62 in 10.0 mi West 12.7 mph 25.3 mph N/A   Mostly Cloudy
12:55 PM 35.6 °F 26.6 °F 10.4 °F 35% 29.62 in 10.0 mi West 13.8 mph 26.5 mph N/A   Partly Cloudy
1:15 PM 33.8 °F 22.8 °F 12.2 °F 41% 29.62 in 10.0 mi West 18.4 mph 26.5 mph N/A   Scattered Clouds
1:35 PM 35.6 °F 25.9 °F 14.0 °F 41% 29.62 in 10.0 mi WSW 16.1 mph 23.0 mph N/A   Scattered Clouds
1:55 PM 35.6 °F 27.1 °F 14.0 °F 41% 29.62 in 10.0 mi WSW 12.7 mph 19.6 mph N/A   Clear
2:15 PM 35.6 °F 26.2 °F 12.2 °F 38% 29.62 in 10.0 mi WSW 15.0 mph 20.7 mph N/A   Clear
2:55 PM 33.8 °F 25.8 °F 12.2 °F 41% 29.63 in 10.0 mi NW 10.4 mph - N/A   Mostly Cloudy
3:15 PM 33.8 °F 26.4 °F 12.2 °F 41% 29.64 in 10.0 mi WSW 9.2 mph 19.6 mph N/A   Overcast
3:35 PM 30.2 °F 22.6 °F 15.8 °F 55% 29.64 in 10.0 mi West 8.1 mph - N/A   Mostly Cloudy
3:55 PM 30.2 °F 20.2 °F 17.6 °F 60% 29.66 in 10.0 mi West 12.7 mph 17.3 mph N/A   Overcast
4:15 PM 30.2 °F 24.3 °F 19.4 °F 64% 29.66 in 10.0 mi WNW 5.8 mph - N/A   Overcast
4:35 PM 28.4 °F 19.1 °F 17.6 °F 64% 29.66 in 10.0 mi WNW 10.4 mph - N/A   Overcast
4:55 PM 28.4 °F 19.7 °F 17.6 °F 64% 29.67 in 10.0 mi West 9.2 mph - N/A   Mostly Cloudy
5:35 PM 30.2 °F 20.8 °F 12.2 °F 47% 29.67 in 10.0 mi West 11.5 mph 18.4 mph N/A   Clear
5:55 PM 30.2 °F 19.8 °F 10.4 °F 44% 29.67 in 10.0 mi West 13.8 mph 18.4 mph N/A   Clear
6:15 PM 28.4 °F 20.4 °F 10.4 °F 47% 29.67 in 10.0 mi WSW 8.1 mph - N/A   Clear
6:35 PM 28.4 °F 15.8 °F 8.6 °F 43% 29.66 in 10.0 mi West 18.4 mph 24.2 mph N/A   Clear
6:55 PM 28.4 °F 21.2 °F 6.8 °F 40% 29.68 in 10.0 mi WNW 6.9 mph 16.1 mph N/A   Clear
7:15 PM 26.6 °F 22.6 °F 8.6 °F 47% 29.67 in 10.0 mi NW 3.5 mph - N/A   Clear
7:35 PM 28.4 °F - 8.6 °F 43% 29.67 in 10.0 mi Calm Calm - N/A   Clear
7:55 PM 28.4 °F - 8.6 °F 43% 29.68 in 10.0 mi Calm Calm - N/A   Partly Cloudy
8:55 PM 28.4 °F 18.0 °F 10.4 °F 47% 29.67 in 10.0 mi West 12.7 mph 18.4 mph N/A   Clear
9:15 PM 30.2 °F 19.8 °F 8.6 °F 40% 29.66 in 10.0 mi West 13.8 mph 26.5 mph N/A   Clear
9:35 PM 30.2 °F 19.3 °F 8.6 °F 40% 29.65 in 10.0 mi West 15.0 mph 21.9 mph N/A   Partly Cloudy
9:55 PM 30.2 °F 21.9 °F 8.6 °F 40% 29.65 in 10.0 mi WSW 9.2 mph 20.7 mph N/A   Mostly Cloudy
10:15 PM 30.2 °F 20.8 °F 8.6 °F 40% 29.64 in 10.0 mi SSW 11.5 mph - N/A   Overcast
10:55 PM 26.6 °F 15.2 °F 10.4 °F 51% 29.63 in 10.0 mi South 13.8 mph - N/A   Clear
11:15 PM 26.6 °F 15.2 °F 12.2 °F 55% 29.62 in 10.0 mi South 13.8 mph - N/A   Clear
11:35 PM 26.6 °F 16.8 °F 12.2 °F 55% 29.61 in 10.0 mi SSE 10.4 mph - N/A   Clear
11:55 PM 26.6 °F 15.7 °F 15.8 °F 64% 29.60 in 10.0 mi SSE 12.7 mph 17.3 mph N/A   Clear